Gadsden, AL

4:52 AM CDT on June 20, 2019 (GMT -0500)
Gadsden Municipal

Weather History for KGAD - May, 2019

Change the Weather History Date:

Saturday, May 18, 2019

  Actual Average Record
Temperature  
Mean Temperature 74 °F -  
Max Temperature 88 °F 78 °F 93 °F (1940)
Min Temperature 60 °F 55 °F 39 °F (2011)
Cooling Degree Days 8    
Growing Degree Days 24 (Base 50)    
Moisture  
Dew Point 68 °F    
Average Humidity 75    
Maximum Humidity 100    
Minimum Humidity 53    
Precipitation  
Precipitation 0.00 in - - ()
Sea Level Pressure  
Sea Level Pressure 30.01 in    
Wind  
Wind Speed 1 mph ()    
Max Wind Speed 10 mph    
Max Gust Speed -    
Visibility 4.4 miles    
Events Fog    
Averages and records for this station are not official NWS values.
T = Trace of Precipitation, MM = Missing Value Source: Averaged Metar Reports

Daily Weather History Graph

Daily Weather History Graph

Search for Another Location

Airport or City:

Astronomy

May. 18, 2019 Rise Set
Actual Time 5:41 AM CDT 7:40 PM CDT
Civil Twilight 5:13 AM CDT 8:08 PM CDT
Nautical Twilight 4:39 AM CDT 8:42 PM CDT
Astronomical Twilight 4:03 AM CDT 9:18 PM CDT
Moon 7:38 PM CDT (5/18) 5:43 AM CDT (5/18)
Length of Visible Light 14h 55m
Length of Day
13h 59m
Full, 100% of the Moon is Illuminated
May 18
Full
May 18
Full
May 26
Last Quarter
Jun 3
New
Jun 10
First Quarter

Hourly Weather History & Observations

Time (CDT) Temp. Heat Index Dew Point Humidity Pressure Visibility Wind Dir Wind Speed Gust Speed Precip Events Conditions
12:56 AM 64.0 °F - - N/A% 30.01 in 4.0 mi Calm Calm - N/A   Haze
1:28 AM 64.4 °F - - N/A% 30.00 in 1.0 mi Calm Calm - N/A   Clear
1:36 AM 64.4 °F - - N/A% 30.00 in 2.0 mi Calm Calm - N/A   Clear
1:43 AM 64.4 °F - - N/A% 30.00 in 5.0 mi Calm Calm - N/A   Haze
1:56 AM 63.0 °F - - N/A% 30.01 in - Calm Calm - N/A   Clear
1:58 AM 62.6 °F - - N/A% 30.00 in 0.5 mi Calm Calm - N/A Fog Fog
2:14 AM 62.6 °F - - N/A% 30.00 in 0.8 mi Calm Calm - N/A   Clear
2:23 AM 64.4 °F - - N/A% 30.00 in 1.5 mi Calm Calm - N/A   Clear
2:25 AM 62.6 °F - - N/A% 30.00 in 3.0 mi Calm Calm - N/A   Clear
2:50 AM 62.6 °F - - N/A% 30.00 in 1.8 mi Calm Calm - N/A   Clear
2:56 AM 63.0 °F - - N/A% 30.00 in 1.2 mi Calm Calm - N/A   Clear
3:02 AM 62.6 °F - - N/A% 29.99 in 3.0 mi Calm Calm - N/A   Clear
3:13 AM 62.6 °F - - N/A% 30.00 in 2.0 mi Calm Calm - N/A   Clear
3:15 AM 60.8 °F - - N/A% 30.00 in 0.8 mi Calm Calm - N/A   Clear
3:23 AM 62.6 °F - - N/A% 30.00 in 0.5 mi Calm Calm - N/A Fog Fog
3:27 AM 62.6 °F - - N/A% 30.00 in 1.0 mi Calm Calm - N/A   Clear
3:33 AM 60.8 °F - - N/A% 30.00 in 0.5 mi Calm Calm - N/A Fog Fog
3:56 AM 61.0 °F - - N/A% 30.01 in 0.2 mi Calm Calm - N/A Fog Fog
4:09 AM 60.8 °F - - N/A% 30.01 in 0.8 mi Calm Calm - N/A   Clear
4:16 AM 60.8 °F - - N/A% 30.01 in 1.2 mi Calm Calm - N/A   Clear
4:20 AM 60.8 °F - - N/A% 30.01 in 3.0 mi SSW 3.5 mph - N/A   Clear
4:42 AM 60.8 °F - - N/A% 30.01 in 1.8 mi Calm Calm - N/A   Clear
4:56 AM 61.0 °F - - N/A% 30.02 in 1.0 mi Calm Calm - N/A   Clear
5:08 AM 60.8 °F - - N/A% 30.02 in 2.0 mi Calm Calm - N/A   Clear
5:20 AM 60.8 °F - - N/A% 30.02 in 1.8 mi Calm Calm - N/A   Clear
5:25 AM 60.8 °F - - N/A% 30.02 in 0.8 mi Calm Calm - N/A   Clear
5:33 AM 60.8 °F - - N/A% 30.03 in 0.5 mi Calm Calm - N/A Fog Fog
5:40 AM 60.8 °F - - N/A% 30.03 in 0.2 mi Calm Calm - N/A Fog Fog
5:46 AM 60.8 °F - - N/A% 30.03 in 0.8 mi Calm Calm - N/A   Clear
5:53 AM 60.8 °F - - N/A% 30.03 in 6.0 mi Calm Calm - N/A   Haze
5:56 AM 60.1 °F - - N/A% 30.04 in 4.0 mi Calm Calm - N/A   Haze
6:00 AM 60.8 °F - - N/A% 30.04 in 0.8 mi Calm Calm - N/A   Clear
6:02 AM 60.8 °F - - N/A% 30.04 in 0.2 mi Calm Calm - N/A Fog Fog
6:12 AM 60.8 °F - - N/A% 30.03 in 0.8 mi Calm Calm - N/A   Clear
6:14 AM 60.8 °F - - N/A% 30.03 in 1.2 mi Calm Calm - N/A   Clear
6:17 AM 60.8 °F - - N/A% 30.03 in 3.0 mi Calm Calm - N/A   Clear
6:56 AM 63.0 °F - - N/A% 30.04 in 6.0 mi Calm Calm - N/A   Haze
7:56 AM 68.0 °F - 68.0 °F 100% 30.07 in 10.0 mi Calm Calm - N/A   Clear
8:56 AM 73.9 °F - 72.0 °F 93% 30.07 in 10.0 mi West 5.8 mph - N/A   Clear
9:56 AM 79.0 °F - 72.0 °F 79% 30.07 in 10.0 mi SSE 4.6 mph - N/A   Clear
10:56 AM 82.0 °F 85.5 °F 69.1 °F 65% 30.05 in 10.0 mi Variable 4.6 mph - N/A   Clear
11:56 AM 84.0 °F 88.4 °F 70.0 °F 63% 30.04 in 10.0 mi South 5.8 mph - N/A   Clear
12:56 PM 84.0 °F 87.8 °F 69.1 °F 61% 30.02 in 10.0 mi SSE 10.4 mph - N/A   Clear
1:56 PM 86.0 °F 89.4 °F 68.0 °F 55% 29.99 in 10.0 mi SE 10.4 mph - N/A   Partly Cloudy
2:56 PM 87.1 °F 90.6 °F 68.0 °F 53% 29.98 in 10.0 mi SSE 8.1 mph - N/A   Scattered Clouds
3:56 PM 84.0 °F 87.0 °F 68.0 °F 58% 29.97 in 10.0 mi South 4.6 mph - N/A   Scattered Clouds
4:56 PM 84.9 °F 87.6 °F 66.9 °F 55% 29.96 in 10.0 mi South 5.8 mph - N/A   Partly Cloudy
5:56 PM 84.9 °F 87.6 °F 66.9 °F 55% 29.96 in 10.0 mi SSW 6.9 mph - N/A   Clear
6:56 PM 82.0 °F 84.5 °F 66.9 °F 60% 29.96 in 10.0 mi South 3.5 mph - N/A   Clear
7:56 PM 75.9 °F - 66.0 °F 71% 29.96 in 10.0 mi Calm Calm - N/A   Clear
8:56 PM 69.1 °F - 69.1 °F 100% 29.97 in 10.0 mi Calm Calm - N/A   Clear
9:56 PM 66.9 °F - 66.9 °F 100% 29.98 in 10.0 mi Calm Calm - N/A   Clear
10:56 PM 66.0 °F - 66.0 °F 100% 29.99 in 10.0 mi Calm Calm - N/A   Clear
11:56 PM 64.0 °F - 64.0 °F 100% 29.99 in 10.0 mi Calm Calm - N/A   Clear